GSAT-10 (38779 NORAD) Tracking and Keplerian Element Data

This shows tracking and keplerian element data for the satellite.

Feedback or suggestion? Click here.




ElementValue
Catalog38779
NameGSAT-10
Epoch Orbit2281
Epoch Day349.5358041
Epoch Year2018
RAAN306.9726
Inclination0.0157
Eccentricity0.0001676
Argument of Perigee278.0765
Mean Anonmoly134.952
Mean Motion1.00271368
Decay Rate-1.52E-06
L11 38779U 12051B 18349.53580410 -.00000152 00000-0 00000+0 0 9992
L22 38779 0.0157 306.9726 0001676 278.0765 134.9520 1.00271368 22812

Live tracking and technical data element details for GSAT-10 (NORAD 38779). GSAT-10 can be tracked NOW for your location showing map with azimuth and elevation plus other details from your city location.

Track the satellite on the map from your city or location and see movement details for azimuth, elevation, latitude, longitude, range, height, and movement on the map or in text.







IsCatalogInMostPopularTable: catalog: 38779, numindb: 89
Update: records affected: 1



GetName: 38779 GSAT-10

Hit Count: updated at: Sun, 16 Dec 2018 04:12:31 GMT